Regional Weather Roundup
Issued by NWS State College, PA

Home | Current Version | Previous Version | Graphics & Text | Print | Product List | Glossary Off
Versions: 1 2 3 4 5 6 7 8 9 10 11 12 13 14 15 16 17 18 19 20 21 22 23 24 25 26 27 28 29 30 31 32 33 34 35 36 37 38 39 40 41 42 43 44 45 46 47 48 49 50

000
ASUS41 KCTP 182310
RWRCTP

REGIONAL WEATHER ROUNDUP
NATIONAL WEATHER SERVICE STATE COLLEGE PA
700 PM EDT FRI AUG 18 2017

Note: "fair" indicates few or no clouds below 12,000 feet with no
significant weather and/or obstructions to visibility.

* = STATION THAT DOES NOT REPORT PRECIPITATION /E.G. RAIN...SNOW...ETC/
    THUNDER OR FOG.

PAZ002>004-007>009-013>016-020>023-029>032-190000-
WESTERN PENNSYLVANIA

CITY           SKY/WX    TMP DP  RH WIND       PRES   REMARKS
ERIE           PTSUNNY   76  66  71 SW16G23   29.81R
MEADVILLE      PTSUNNY   74  65  73 NW6       29.85R
FRANKLIN*      SUNNY     79  63  57 W8        29.84S
NEW CASTLE     FAIR      81  64  56 W9        29.84R
BEAVER COUNTY  NOT AVBL
BUTLER*        MOSUNNY   81  63  54 W8        29.84S
PITTSBURGH INT MOSUNNY   81  62  52 W9        29.84S
PITTSBURGH     SUNNY     80  59  48 W12G20    29.84R
INDIANA*       SUNNY     81  64  57 NW8       29.86R
LATROBE        MOSUNNY   81  64  57 W13G20    29.84R
WASHINGTON CO* SUNNY     79  63  57 W6        29.86S
$$

PAZ004>006-010>012-017>019-024>028-033>037-041-042-045-046-049>053-190000-
CENTRAL PENNSYLVANIA

CITY           SKY/WX    TMP DP  RH WIND       PRES   REMARKS
BRADFORD       PTSUNNY   76  60  57 W5        29.85R
DUBOIS         SUNNY     79  59  50 W9G20     29.83R
CLEARFIELD     SUNNY     82  62  50 W8        29.83R
JOHNSTOWN      MOSUNNY   77  64  64 W16       29.88R
ALTOONA        PTSUNNY   79  68  69 W7        29.84R
STATE COLLEGE  MOSUNNY   81  72  74 SW7       29.80R
WILLIAMSPORT   MOSUNNY   82  74  76 S9        29.74S
SELINSGROVE    SUNNY     80  75  84 S6        29.78R
FT INDIANTOWN  PTSUNNY   79  77  94 S3        29.79S
CAPITAL CITY   CLOUDY    82  73  74 CALM      29.78F
HARRISBURG     CLOUDY    80  77  90 S7        29.78F
YORK           CLOUDY    80  77  90 CALM      29.80F
$$

PAZ038>040-043-044-047-048-054-055-060>062-067>071-190000-
EASTERN PENNSYLVANIA

CITY           SKY/WX    TMP DP  RH WIND       PRES   REMARKS
SCRANTON       CLOUDY    80  72  76 CALM      29.79S
MOUNT POCONO   CLOUDY    72  71  97 S6        29.85S
ALLENTOWN      CLOUDY    76  73  91 MISG      29.79S
QUAKERTOWN*    CLOUDY    72  72 100 CALM      29.82R
READING        CLOUDY    76  75  97 S3        29.78S
LANCASTER      CLOUDY    78  76  93 S5        29.80S
COATESVILLE    CLOUDY    73  73 100 VRB5      29.83F FOG
POTTSTOWN      CLOUDY    72  72 100 CALM      29.81S
BLUE BELL      CLOUDY    72  72 100 CALM      29.82R
DOYLESTOWN     LGT RAIN  71  71 100 S3        29.80F
WILLOW GROVE   NOT AVBL
NORTH PHILA    TSTM      76  72  87 VRB6G17   29.83F FOG
PHILADELPHIA   TSTM      76  73  91 W10       29.81R
$$




USA.gov is the U.S. government's official web portal to all federal, state and local government web resources and services.